Temp
9 9 9 9 9 10 9 9 9 10 10 10 10 10 13 15 15 15 15 15 15 15 15 15 14 15 15 18 17 15 14 13 14 14 15 16 16 16 15 15 16 17 18 18 18 19 18
9 9 9 9 9 9 9 9 9 10 10 9 9 11 14 14 14 15 15 15 15 15 15 15 14 15 16 17 15 14 14 14 14 15 15 16 16 16 15 14 15 16 16 17 18 18 18
9 9 9 9 9 9 9 9 9 9 9 9 9 11 14 14 14 14 14 15 15 15 15 15 14 14 17 17 15 14 14 14 14 14 15 15 14 15 15 15 16 16 15 17 17 18 18
9 8 9 9 9 9 9 9 10 10 9 9 10 12 14 14 13 14 14 15 15 15 15 15 15 15 18 16 15 15 15 15 14 14 14 14 14 15 16 17 16 16 17 16 18 18 19
8 8 9 9 9 9 9 9 11 11 11 11 11 14 14 14 14 14 14 15 15 15 15 15 14 17 19 16 17 16 15 16 15 15 15 15 15 15 15 14 14 15 15 16 16 18 18
8 8 8 9 8 9 9 10 10 11 11 12 13 14 14 14 14 14 14 15 15 15 15 14 15 17 18 18 17 16 16 15 16 16 16 15 16 16 15 15 15 15 16 16 16 17 17
8 8 8 8 9 9 9 9 11 11 11 12 14 14 14 14 14 15 15 15 18 18 17 19 19 18 19 17 15 16 16 16 16 17 17 18 16 18 18 18 17 16 15 17 18 19 17
8 8 8 8 8 9 8 9 10 11 11 12 14 14 14 14 14 15 15 18 15 14 18 17 17 17 17 15 17 18 15 17 17 17 18 18 19 19 17 17 16 17 16 17 19 18 18
8 8 8 8 8 8 10 10 10 11 12 13 14 14 14 14 14 14 15 13 13 12 18 19 18 18 18 16 18 18 17 17 17 18 19 17 19 18 18 17 18 18 18 18 18 18 18
8 8 8 8 8 9 9 10 10 11 11 13 14 14 15 14 14 14 15 13 13 12 18 20 18 18 17 17 17 18 17 17 18 17 18 19 19 18 19 18 18 18 18 18 18 17 15
8 8 8 8 8 9 9 10 10 10 11 12 14 14 14 15 14 16 12 13 13 14 17 19 19 17 18 17 18 18 16 17 17 18 17 19 18 18 19 18 18 19 18 18 18 18 17
9 9 9 9 9 9 9 9 10 11 11 12 13 13 14 13 14 12 13 13 13 16 17 19 18 18 18 18 18 18 17 16 17 17 18 18 19 17 18 18 18 19 18 20 20 19 16
9 9 9 9 9 9 9 10 10 10 11 13 13 13 13 13 15 13 13 15 17 18 18 20 18 18 18 18 18 17 18 19 18 15 17 19 20 18 16 18 19 19 20 17 18 18 19
10 9 9 9 9 9 9 9 9 10 11 13 14 13 12 13 13 13 13 18 16 19 20 17 17 17 17 17 19 18 18 19 16 17 17 16 17 19 17 18 18 18 18 17 16 18 19
10 10 10 9 9 9 9 9 9 9 10 11 14 12 12 11 12 13 17 17 18 20 18 18 18 18 20 17 16 18 18 18 17 17 17 17 19 18 17 17 16 19 19 18 17 18 17
9 10 10 10 10 9 9 9 9 9 10 10 10 12 13 12 12 13 18 17 19 17 16 16 18 17 19 19 17 18 19 18 17 16 16 17 16 19 18 16 17 17 18 18 19 17 18
8 9 9 10 10 10 9 9 9 9 10 10 11 15 12 11 12 16 16 19 18 16 16 17 18 17 18 17 17 18 19 17 16 16 16 16 16 19 19 19 18 18 19 19 18 18 18
6 6 6 8 9 9 9 9 9 9 9 10 12 16 11 11 16 16 18 19 14 16 15 15 15 17 17 17 17 17 17 18 16 16 16 16 16 16 19 18 17 17 18 18 18 19 19
5 5 5 6 7 8 9 9 9 9 9 9 14 15 10 10 16 17 17 16 16 15 16 15 16 15 16 16 16 17 17 15 15 15 16 16 16 16 20 17 16 17 18 17 17 17 17
4 4 5 5 5 6 7 8 9 9 9 8 12 15 13 12 15 16 18 18 17 15 16 16 16 15 15 15 17 16 16 15 14 14 12 13 16 16 18 19 18 17 18 17 17 16 19
4 4 4 4 4 4 5 6 8 9 8 9 13 15 15 15 15 15 17 18 17 16 15 15 15 15 16 16 16 16 16 16 14 13 13 14 14 15 16 16 16 16 16 16 16 16 17
3 3 4 4 4 4 4 5 6 7 8 9 12 14 13 16 15 16 15 17 17 18 16 15 15 18 16 17 18 18 16 16 17 13 14 13 14 14 14 17 15 14 16 16 16 16 16
3 3 4 4 4 4 4 4 4 5 7 8 11 12 12 15 16 16 17 17 16 17 18 19 16 18 16 16 18 18 17 17 16 15 14 14 13 15 14 15 16 17 18 17 16 15 16
3 3 3 3 3 4 4 4 4 4 4 6 10 11 13 13 16 16 17 18 16 16 18 17 16 17 16 14 14 14 14 14 14 14 14 14 13 14 13 14 15 16 15 15 15 15 16
3 3 3 3 3 3 3 3 4 4 3 4 5 8 12 13 15 16 17 17 17 16 15 16 15 16 15 15 15 15 15 13 13 12 12 12 14 13 13 14 17 17 15 15 15 14 14
3 3 3 3 2 2 2 3 3 3 4 4 5 7 9 11 13 15 17 17 16 17 16 14 11 12 14 16 14 15 16 17 15 10 10 11 12 13 13 12 15 16 15 14 15 15 13
2 2 2 2 2 2 2 2 2 3 3 4 5 7 8 8 12 15 15 16 17 17 17 14 11 11 13 14 14 15 15 16 15 15 10 10 11 11 12 11 14 16 14 13 15 14 13
2 2 2 2 2 2 2 2 2 2 3 3 6 6 7 9 10 14 14 13 14 16 16 13 12 12 11 13 15 16 15 15 14 16 13 13 12 12 12 11 12 14 14 13 13 12 12
2 2 2 2 2 2 2 2 2 2 2 3 6 7 7 8 10 11 12 14 14 15 16 13 16 14 15 14 15 16 14 14 15 15 14 13 15 14 13 13 13 13 13 12 12 12 12
Height
865 864 862 860 858 857 855 852 849 847 845 843 841 837 835 834 833 832 832 832 831 830 828 826 824 822 821 815 818 817 815 813 812 810 807 805 801 797 798 796 793 788 782 780 781 780 780
867 865 863 861 859 857 856 853 850 848 846 843 840 837 835 833 832 831 830 830 830 829 828 826 824 823 821 819 820 817 815 814 812 810 807 805 803 803 800 801 796 788 788 783 780 778 777
868 866 864 862 860 858 856 854 851 848 846 843 839 836 834 833 831 829 828 828 828 828 827 826 825 823 821 820 818 817 815 814 812 810 808 808 807 805 802 797 792 791 789 781 775 772 775
868 866 865 863 861 859 856 854 851 848 845 842 838 835 834 832 830 828 827 826 826 826 825 824 824 824 817 817 817 816 815 813 812 811 809 808 807 805 800 793 792 789 784 783 770 768 766
869 867 866 864 862 860 857 854 851 848 845 841 837 834 833 831 829 827 825 825 825 824 824 824 824 823 815 816 816 814 814 812 811 810 808 807 806 804 801 800 797 790 788 779 776 766 767
869 867 866 864 863 860 858 854 852 848 845 841 837 834 832 830 828 826 825 824 824 824 824 823 823 824 816 814 814 813 813 812 810 807 804 805 800 798 797 796 793 789 784 781 774 769 767
870 869 866 865 862 861 858 855 852 848 845 842 837 834 831 830 828 827 826 826 825 824 823 818 818 816 813 814 812 811 811 810 808 804 801 795 799 786 785 782 785 786 788 774 762 758 762
871 869 867 865 863 860 858 855 852 848 845 841 837 834 832 830 829 827 827 825 827 829 821 818 819 818 816 816 812 809 811 809 804 802 795 793 787 784 786 785 786 782 780 771 757 759 760
870 869 868 865 863 860 858 855 853 850 846 842 838 835 832 830 829 829 828 829 828 828 822 815 816 816 815 817 810 807 810 805 803 799 790 797 784 784 785 784 779 772 768 765 765 759 758
870 869 867 865 862 860 858 854 852 849 846 842 838 835 833 831 832 831 832 830 828 828 824 815 815 815 815 814 811 807 808 810 800 800 795 786 780 786 780 779 780 773 768 765 763 765 774
870 868 867 865 863 860 858 855 851 849 846 842 838 836 833 830 833 831 834 832 830 830 836 817 814 815 812 815 809 806 808 805 803 796 802 785 783 783 778 776 776 767 762 763 760 759 763
870 868 866 865 863 860 858 855 851 848 845 842 839 836 835 832 833 834 832 831 833 835 835 816 813 813 811 806 806 804 805 806 799 798 789 787 782 787 777 774 774 768 764 749 752 752 768
870 868 866 865 862 860 858 855 852 848 845 841 838 836 835 833 832 833 834 832 833 829 819 814 814 813 813 809 805 806 804 799 803 811 794 782 775 780 784 775 768 765 758 769 766 762 754
868 867 865 863 861 859 857 854 852 849 845 841 837 835 834 833 833 831 835 828 836 818 810 817 819 815 815 810 803 805 804 800 806 803 800 799 792 779 782 781 779 773 773 778 784 768 758
865 865 863 861 860 858 856 853 851 848 845 840 836 834 834 833 832 832 830 833 818 809 813 816 811 814 806 812 815 804 799 802 802 804 806 799 781 777 782 782 784 771 769 772 774 762 769
862 861 860 859 858 856 855 852 850 847 844 841 837 835 832 831 832 833 827 825 814 817 819 819 816 816 811 806 813 805 798 799 803 805 806 800 800 776 778 782 781 781 776 774 767 778 768
858 857 856 855 854 854 853 852 850 847 844 840 838 832 832 833 831 829 828 813 813 819 820 818 816 816 812 814 814 807 801 803 805 806 807 804 805 779 775 774 776 775 769 771 774 770 772
857 855 853 851 850 849 850 850 848 847 844 840 838 831 831 832 830 823 817 811 819 817 822 821 819 815 815 813 812 810 807 803 806 808 806 803 801 798 774 776 779 781 776 775 777 768 761
856 854 852 849 847 846 846 846 846 846 846 846 833 827 830 832 823 817 812 814 814 815 815 818 817 816 815 814 815 808 806 807 809 810 807 806 798 796 770 781 780 779 773 777 776 775 769
855 853 850 848 845 843 843 842 842 844 844 846 841 825 827 828 819 813 808 805 807 811 810 812 812 816 817 813 808 808 808 806 810 810 815 813 802 796 787 775 779 781 773 776 778 779 758
853 851 848 846 844 842 840 839 838 839 842 844 837 819 815 811 812 811 806 799 804 806 809 808 811 810 808 808 807 806 804 804 809 811 812 810 803 794 789 784 780 777 775 776 776 774 771
851 849 847 844 842 840 838 837 835 836 837 840 831 823 818 807 806 806 803 796 795 794 802 804 803 794 801 801 792 794 799 800 797 810 809 809 801 797 795 773 782 779 768 767 770 769 767
848 846 845 843 840 838 836 834 833 833 835 828 826 828 825 801 795 799 790 789 789 787 785 781 790 791 799 794 791 791 794 794 796 799 804 805 803 795 788 780 774 760 751 758 765 765 763
845 843 842 839 836 834 833 831 831 829 829 827 820 820 815 795 792 784 782 781 785 785 781 783 788 787 789 795 798 798 797 798 798 799 801 798 803 800 793 787 778 764 762 763 764 765 763
842 840 837 836 833 830 828 826 825 824 823 821 818 813 806 790 787 777 779 778 780 783 785 783 785 785 791 792 794 793 790 796 797 802 802 804 800 801 799 787 764 755 766 762 764 771 770
838 835 834 831 827 824 822 820 818 817 815 811 806 807 802 793 765 775 769 770 773 774 778 782 791 791 791 788 793 791 782 775 785 804 810 806 803 800 795 798 776 764 766 766 764 764 772
834 833 829 826 822 818 815 812 809 807 805 801 787 796 794 784 767 770 762 763 763 765 766 775 786 791 790 785 787 782 778 776 777 778 803 803 803 801 796 800 775 763 767 769 767 771 770
829 827 824 820 815 812 808 804 800 796 792 788 767 775 779 770 763 762 763 763 761 759 758 773 780 783 788 782 776 770 771 769 773 765 776 777 785 791 788 796 784 767 769 770 773 773 773
824 821 817 813 810 807 803 798 792 787 781 774 757 759 768 765 752 754 755 754 755 755 754 763 754 756 758 765 762 758 768 767 763 766 769 773 760 766 775 767 764 768 772 773 774 775 773
Wind_Speed
9 9 10 11 11 12 12 13 14 14 14 13 13 10 8 8 9 9 9 9 8 8 10 10 9 10 5 3 6 7 10 9 7 7 6 8 11 7 6 8 9 12 12 10 12 14 15
9 10 11 11 12 13 13 13 14 15 16 16 15 11 7 7 9 10 10 9 9 9 9 9 8 8 5 7 7 6 7 7 7 7 7 6 6 6 6 5 6 7 11 14 13 14 15
9 11 11 12 13 13 14 14 15 16 16 17 16 12 7 7 10 10 10 9 8 9 10 8 7 5 5 4 4 5 5 5 5 5 6 4 7 9 1 8 8 10 13 14 16 16 13
10 12 13 13 14 13 14 15 16 17 17 18 17 11 7 9 10 9 9 8 6 7 8 5 6 5 4 3 4 5 5 6 5 3 4 5 3 10 8 8 8 9 9 8 2 5 13
10 11 12 14 14 15 14 15 16 18 20 21 18 9 8 10 10 9 8 5 5 5 6 5 3 5 2 4 4 5 5 8 8 6 5 5 4 4 7 7 7 5 8 9 9 3 6
10 11 12 14 14 15 15 16 18 19 21 24 20 9 11 10 9 7 4 3 3 4 3 3 6 5 4 6 8 6 5 6 6 9 7 5 4 6 7 5 9 8 10 8 10 4 7
10 11 12 14 15 16 16 17 18 20 23 26 21 10 11 9 8 6 4 3 3 4 5 4 4 4 6 10 3 4 3 7 6 7 7 3 8 10 13 9 10 10 11 16 12 4 6
10 11 12 13 15 16 17 18 19 20 23 25 21 10 11 8 6 5 3 3 3 1 5 5 5 6 5 3 4 4 2 4 5 10 7 6 6 9 9 6 9 13 15 14 7 6 6
9 10 11 12 14 15 15 17 19 21 23 26 20 11 11 9 5 4 3 2 1 3 4 3 2 5 3 2 5 3 3 5 8 8 10 8 12 8 8 10 10 10 10 12 15 13 11
8 9 11 12 13 14 15 16 18 20 23 24 20 11 11 9 2 4 2 2 2 1 3 2 1 1 2 4 4 1 1 4 3 7 10 7 3 7 10 6 6 11 6 10 13 9 6
9 9 11 13 13 15 15 16 16 19 22 23 19 11 9 7 5 3 2 4 2 3 2 2 2 1 2 4 9 4 1 3 8 11 4 5 9 10 9 4 5 8 7 11 12 10 5
12 12 13 14 15 16 17 17 16 17 20 21 20 11 9 4 2 2 2 2 3 1 4 0 2 2 6 4 2 5 3 4 4 8 7 17 8 4 5 11 9 13 13 14 9 8 3
13 13 14 15 16 17 17 19 18 18 19 19 19 10 7 3 1 1 3 3 2 2 0 2 2 3 6 4 4 2 5 6 4 6 6 12 7 2 3 10 6 10 11 5 3 1 4
15 15 15 15 16 17 18 19 19 19 20 20 19 8 5 1 0 2 2 3 3 2 2 2 3 9 4 3 3 4 5 4 3 4 8 5 5 1 2 3 6 8 5 3 6 8 8
18 18 17 16 17 17 18 19 19 20 20 23 18 4 2 4 1 1 2 3 3 1 1 2 4 3 2 2 4 4 3 3 2 3 5 5 4 2 1 3 3 4 3 4 5 3 4
14 15 19 18 18 18 18 17 19 20 20 23 12 5 3 2 2 2 2 4 3 2 2 0 3 0 4 5 5 3 2 3 2 1 1 3 8 2 1 3 4 4 5 2 1 5 5
15 17 16 17 18 18 19 19 19 19 19 19 5 4 1 2 3 3 3 4 2 2 3 3 2 3 5 4 3 5 4 2 1 2 2 4 3 3 4 1 6 2 2 2 3 2 3
17 15 16 14 14 18 19 18 17 18 20 7 4 3 2 5 3 2 3 3 1 3 3 4 3 4 3 2 4 4 4 3 1 1 3 2 4 6 11 2 2 4 4 4 4 3 3
17 17 17 16 13 15 16 18 15 12 12 9 3 3 2 2 4 5 3 3 4 6 6 5 5 6 2 3 4 5 4 2 3 2 3 1 3 6 2 2 3 3 1 5 5 4 8
15 17 18 19 18 15 15 15 18 11 7 3 4 3 3 3 4 5 6 6 6 6 4 5 2 4 5 5 8 4 4 1 4 4 2 0 4 8 8 12 9 11 11 6 8 5 7
18 19 18 18 19 20 18 13 13 16 9 3 4 5 3 4 7 11 8 4 5 6 6 9 5 13 8 5 5 6 6 4 5 4 3 3 6 8 13 17 17 18 17 14 15 14 7
18 18 19 19 19 20 19 18 13 12 15 10 4 4 2 8 3 11 12 10 13 8 9 6 10 8 14 8 7 4 4 4 5 5 4 3 4 5 8 12 6 12 13 13 13 14 15
18 19 19 19 19 20 20 20 19 12 16 9 12 15 5 8 10 11 13 15 12 10 11 11 14 9 11 16 12 9 7 8 6 4 6 3 3 5 7 7 17 14 5 6 4 4 6
17 16 18 18 18 20 20 21 21 20 16 21 11 13 7 16 15 16 15 15 15 16 13 5 10 10 4 5 2 2 5 7 8 9 8 6 4 3 6 8 5 3 3 3 3 5 5
18 18 19 20 21 23 24 22 23 23 28 30 26 11 7 15 17 24 24 20 13 9 10 9 8 2 8 5 3 5 4 3 3 2 7 8 7 4 3 5 13 5 1 2 1 5 8
18 18 19 20 22 25 24 24 24 26 30 31 32 29 9 11 21 21 21 22 17 15 12 6 3 5 5 4 4 5 5 1 4 4 1 5 7 6 2 4 4 4 3 2 1 3 7
17 16 20 21 23 26 27 27 27 30 34 35 35 39 18 10 19 16 15 16 15 14 11 4 7 6 6 6 7 6 6 1 5 5 6 5 5 10 9 5 8 4 2 2 4 3 4
19 21 21 21 24 27 30 30 31 31 31 37 30 44 39 10 16 19 26 12 4 11 12 7 6 4 5 8 6 5 5 7 3 3 5 8 8 5 5 5 8 6 3 3 4 3 2
21 22 23 23 25 26 28 32 33 33 33 38 28 35 44 10 6 25 34 30 25 13 7 12 3 6 8 6 6 4 4 5 6 4 5 6 8 4 9 5 5 4 3 3 1 2 1
Wind_Direction
26 23 21 20 19 16 14 12 7 1 356 349 334 321 299 283 275 275 284 297 314 329 344 337 347 354 350 1 7 329 337 334 343 333 331 327 303 320 305 328 339 260 268 273 272 268 261
23 22 20 15 15 13 9 8 6 1 354 351 341 323 299 300 295 284 276 281 294 311 322 320 333 353 318 22 320 317 329 330 339 334 332 329 336 329 296 277 283 309 299 290 276 262 259
21 19 15 12 10 10 6 5 4 360 357 353 345 332 306 304 307 297 284 273 281 300 311 304 312 327 267 12 314 307 310 313 323 344 330 344 326 300 341 282 283 275 286 289 263 247 241
21 16 12 10 8 8 4 2 3 2 358 353 350 342 324 318 314 306 293 273 270 293 311 294 295 294 299 280 299 299 297 293 299 304 320 300 294 290 276 307 274 275 278 286 146 306 236
19 16 8 5 8 4 2 2 3 3 360 357 354 353 339 331 323 313 298 265 264 286 298 293 290 277 351 318 294 305 280 297 304 283 287 287 287 301 310 274 288 256 290 300 310 324 263
17 13 5 5 5 2 0 3 4 4 1 359 356 354 347 340 337 327 307 270 273 293 280 261 263 248 178 328 314 289 281 289 296 301 265 256 261 277 215 253 338 316 308 286 268 245 235
10 7 4 1 2 357 359 2 6 4 2 360 356 351 352 349 350 352 348 290 224 196 227 298 336 297 306 328 290 230 290 292 268 259 303 8 294 353 343 327 312 326 297 298 309 340 278
0 1 2 357 357 357 359 2 2 3 1 0 358 354 351 348 349 349 5 319 37 4 298 214 268 279 284 333 292 220 269 299 303 306 314 268 289 356 324 311 299 295 295 309 345 303 260
353 356 355 355 353 355 1 1 360 0 -0 1 360 357 356 350 344 12 42 66 18 333 261 167 235 287 322 278 299 302 278 317 293 301 319 288 297 329 323 317 304 303 295 302 321 339 313
343 346 346 348 353 354 354 358 357 358 358 1 358 360 359 354 23 342 3 349 359 332 282 135 192 131 228 289 257 229 232 303 276 308 325 284 317 298 318 303 320 301 327 299 297 308 341
334 341 342 345 342 347 350 350 355 355 355 358 358 351 360 17 332 331 329 324 320 268 17 135 180 58 228 254 327 152 177 210 282 299 299 293 309 318 305 300 268 281 286 288 293 288 291
354 357 352 348 346 344 344 346 348 351 351 354 355 348 353 22 45 330 318 318 292 303 261 28 274 286 294 188 231 311 257 218 271 289 245 268 299 273 301 309 272 307 294 273 259 267 264
336 341 345 343 344 344 345 341 342 344 346 347 350 340 344 355 62 335 322 252 285 268 146 336 313 308 314 277 292 274 309 302 345 340 330 318 237 250 284 306 201 287 329 314 337 341 13
321 323 327 331 334 340 339 340 340 337 340 341 343 329 311 316 97 97 292 249 242 266 286 79 307 297 276 341 204 293 284 285 147 304 305 328 323 298 12 333 317 322 334 352 317 347 331
304 309 314 318 321 327 332 336 336 335 337 338 340 328 265 284 183 130 239 276 259 235 82 306 287 278 248 254 290 308 228 297 6 353 327 324 290 130 239 305 305 7 309 336 286 231 262
303 306 301 305 313 319 322 328 333 335 334 337 332 304 225 223 156 252 243 250 294 15 98 4 297 33 307 346 303 300 286 122 175 202 304 357 291 66 2 253 210 285 335 287 250 324 337
306 300 296 306 295 307 315 321 327 331 332 334 301 291 227 175 146 225 233 243 230 184 211 189 276 283 263 307 292 303 305 147 221 166 248 307 260 298 263 187 345 282 309 290 277 272 313
349 345 341 305 312 301 300 312 320 328 332 342 295 259 171 160 248 223 234 222 67 182 195 237 243 238 259 297 273 274 283 306 112 281 283 48 306 287 295 109 310 293 308 305 304 353 283
352 353 347 335 314 300 306 296 304 317 334 326 265 257 179 176 239 218 195 232 240 186 205 195 230 227 197 239 276 242 277 82 190 242 326 71 236 298 207 186 160 257 234 285 284 281 260
344 345 346 341 340 321 300 292 282 287 297 325 290 264 168 197 283 271 237 233 215 203 209 199 231 201 197 231 220 272 255 208 192 229 100 219 272 257 275 304 315 289 296 265 271 273 292
345 341 337 338 341 336 337 314 306 265 245 196 229 242 326 209 224 223 231 268 214 206 220 197 207 221 205 231 219 228 244 255 199 167 191 237 265 279 272 282 285 280 278 269 240 241 268
338 334 334 333 335 340 334 339 316 316 222 218 265 255 187 271 265 215 213 217 223 210 176 213 228 212 213 224 227 274 230 216 279 167 218 197 271 301 289 280 282 277 261 252 253 254 259
330 330 331 327 327 321 326 331 330 287 234 215 221 252 282 262 227 224 221 233 224 200 216 231 213 209 221 235 262 281 277 270 275 248 225 228 270 307 282 339 311 279 337 204 210 235 252
331 333 331 337 332 331 317 313 317 316 290 283 226 224 234 253 247 236 251 240 227 211 237 201 204 199 147 110 103 252 245 251 249 247 241 241 244 277 292 304 250 58 65 50 266 10 270
324 321 328 328 329 324 317 312 306 305 309 297 276 224 235 254 254 251 243 243 240 239 229 226 199 80 141 136 258 274 202 226 204 238 231 233 245 268 272 289 295 238 100 112 213 61 18
323 319 316 323 327 327 320 312 308 305 316 288 268 248 220 255 238 256 252 232 237 235 228 210 85 155 172 200 186 236 239 216 194 173 125 191 235 242 182 269 273 49 39 13 243 148 24
309 313 315 315 321 325 322 314 315 304 305 323 254 236 218 240 248 246 237 235 220 233 236 153 164 166 205 191 210 222 237 187 217 201 176 167 188 219 228 253 280 35 55 312 204 112 31
301 306 313 312 317 322 322 321 316 316 315 317 261 220 212 227 252 237 230 240 225 223 215 130 139 184 180 205 210 200 229 198 211 197 184 180 177 195 194 231 252 17 150 280 39 91 45
295 301 309 311 312 312 314 317 321 318 318 316 259 217 213 222 260 227 233 228 234 264 239 173 267 156 172 191 202 200 195 180 209 235 202 216 203 196 198 218 128 79 84 119 15 311 48